User: anonymous
Location: Unspecified
(0.0000°N, 0.0000°E)
Time: 21:14:30
(UTC+02:00)
Language:

NATO 3D Rocket - Orbit

View from above orbital plane
View from above orbital plane
View from above satellite
View from above satellite

Ground track
Ground track

The orbit data is extracted from the following two-line orbital elements,

1 15392U 84115B   14211.15467582  .00000221  00000-0  71570-4 0  1818
2 15392 021.4907 082.6766 1034834 058.5279 077.4314 12.45418322352625
Epoch (UTC): 30 July 2014 03:42:43
Eccentricity: 0.1034834
inclination: 21.4907°
perigee height: 670 km
apogee height: 2297 km
right ascension of ascending node: 82.6766°
argument of perigee: 58.5279°
revolutions per day: 12.45418322
mean anomaly at epoch: 77.4314°
orbit number at epoch: 35262

The dashed part of the orbit path shows where the satellite is in the earth's shadow,  

DLR